Home   Weather   Davis   Past weeks
Flag for USA

Past Weather in Davis, California, USA — Yesterday and Last 2 Weeks

Now
85 °F

Sunny.


Feels Like: 85 °F
Forecast: 92 / 57 °F
Wind: 5 mph from West

Location: Sacramento International Airport

Current Time: Jun 17, 2019 at 1:53:31 pm

Latest Report: Jun 17, 2019 at 12:53 pm


Visibility: 10 mi

Pressure: 29.78 "Hg

Humidity: 43%

Dew Point: 60 °F

Location of DavisLocation

Past Weather in Davis — Graph

°F

Davis Temperature Yesterday

Maximum temperature yesterday: 87 °F (at 3:53 pm)
Minimum temperature yesterday: 54 °F (at 3:53 am)
Average temperature yesterday: 68 °F

High & Low Weather Summary for the Past Weeks

 TemperatureHumidityPressure
High100 °F (Jun 11, 4:53 pm)90% (Jun 15, 5:53 am)30.02 "Hg (Jun 15, 5:53 am)
Low52 °F (Jun 7, 4:53 am)14% (Jun 7, 3:53 pm)29.70 "Hg (Jun 16, 5:53 pm)
Average74 °F53%29.86 "Hg
* Reported Jun 2 11:53 am — Jun 17 11:53 am, Davis. Weather by CustomWeather, © 2019

Note: Actual official high and low records may vary slightly from our data, if they occured in-between our weather recording intervals... More about our weather records

Advertising

Davis Weather History for the Previous 24 Hours

Scroll right to see more
 ConditionsComfort  
Time TempWeatherWind HumidityBarometerVisibility
11:53 am
Mon, Jun 17
81 °FPassing clouds.5 mph54%29.79 "Hg10 mi
10:53 am76 °FScattered clouds.7 mph60%29.80 "Hg10 mi
9:53 am71 °FScattered clouds.7 mph61%29.80 "Hg10 mi
8:53 am67 °FPassing clouds.6 mph68%29.80 "Hg10 mi
7:53 am62 °FPassing clouds.5 mph75%29.79 "Hg10 mi
6:53 am59 °FPassing clouds.5 mph81%29.78 "Hg9 mi
5:53 am58 °FScattered clouds.7 mph84%29.77 "Hg9 mi
4:53 am58 °FPassing clouds.8 mph81%29.75 "Hg10 mi
3:53 am58 °FPassing clouds.6 mph84%29.75 "Hg10 mi
2:53 am59 °FPassing clouds.12 mph78%29.75 "Hg10 mi
1:53 am60 °FPassing clouds.8 mph78%29.74 "Hg10 mi
12:53 am62 °FPassing clouds.10 mph73%29.73 "Hg10 mi
11:53 pm
Sun, Jun 16
62 °FPassing clouds.9 mph73%29.73 "Hg10 mi
10:53 pm65 °FPassing clouds.13 mph68%29.73 "Hg10 mi
9:53 pm67 °FPassing clouds.10 mph66%29.72 "Hg10 mi
8:53 pm69 °FPassing clouds.13 mph63%29.71 "Hg10 mi
7:53 pm75 °FScattered clouds.15 mph58%29.70 "Hg10 mi
6:53 pm80 °FScattered clouds.15 mph47%29.71 "Hg10 mi
5:53 pm86 °FPassing clouds.13 mph32%29.70 "Hg10 mi
4:53 pm86 °FPassing clouds.9 mph39%29.72 "Hg10 mi
3:53 pm87 °FSunny.12 mph40%29.73 "Hg10 mi
2:53 pm85 °FSunny.6 mph45%29.75 "Hg10 mi
1:53 pm83 °FSunny.7 mph46%29.78 "Hg10 mi
Weather by CustomWeather, © 2019

See weather overview